Wind_Speed
118 119 120 121 121 122 123 123 124 124 125 125 125 124 124 123 123 122 121 120 119 118 116 114 113 113 112 111 111 110 109 109 108 107 107 107 106 106 105 104 103 102 101 100 100 99 99 99 99 99 99 99 99 99 98 98 98 98 98 98 98 99 99 99 99 100 100 100 100 100 100 99 99 99 99 100 100 100 100 101 101 102 102 103 104 105
121 122 122 122 123 123 124 123 123 123 123 123 122 121 120 119 118 117 116 115 114 112 110 109 108 107 107 106 106 105 104 104 103 103 103 102 102 101 101 100 99 98 97 97 96 96 96 96 96 96 95 95 95 95 95 95 95 95 96 96 96 96 96 96 97 97 97 97 97 97 97 97 96 96 96 97 97 97 97 98 98 98 99 100 100 101
123 124 124 123 123 123 123 122 122 121 120 119 118 116 115 114 112 112 111 110 108 107 106 105 104 103 103 102 101 101 100 99 99 99 99 98 98 98 97 97 96 95 94 94 94 93 93 93 93 93 92 92 92 92 92 93 93 93 93 93 93 94 94 94 94 94 94 94 95 94 94 94 94 94 94 94 94 95 95 95 95 95 96 96 97 97
124 124 124 123 122 121 120 119 118 117 115 114 112 111 110 108 108 107 106 105 104 103 102 101 100 100 99 98 98 97 96 95 95 95 95 95 95 94 94 93 93 92 92 91 91 91 91 90 90 90 89 89 89 89 89 89 90 90 91 91 91 91 91 92 92 92 92 92 92 92 92 92 92 92 92 92 92 93 93 93 93 93 93 94 94 95
124 124 123 121 120 118 116 115 113 112 110 109 107 106 105 104 104 103 102 102 101 100 99 98 97 96 96 95 94 93 92 92 91 91 91 92 92 91 91 91 90 90 89 89 89 88 88 87 87 86 86 86 86 86 86 86 87 87 88 88 88 89 89 89 89 89 89 89 89 89 89 89 89 89 90 90 90 90 90 90 90 91 91 92 92 92
123 121 120 118 116 114 112 110 108 107 105 104 103 102 101 101 100 100 99 98 97 97 96 95 94 93 93 92 91 90 89 89 88 88 88 89 89 89 88 88 88 87 87 86 86 85 85 84 83 83 82 82 82 82 83 83 84 84 84 85 85 85 86 86 86 86 86 86 86 86 86 86 86 87 87 87 87 88 88 88 88 88 89 89 90 90
120 118 115 113 111 109 107 105 104 103 102 101 100 99 98 98 97 97 96 95 94 94 93 92 91 90 89 89 88 87 86 86 85 85 85 86 86 86 86 85 85 85 84 83 83 82 81 81 80 80 79 79 79 79 80 80 81 81 82 82 82 83 83 83 83 83 83 83 83 84 84 84 84 84 84 84 84 85 85 85 85 86 86 86 87 87
116 114 111 108 106 105 103 102 100 100 99 98 97 96 95 95 94 93 93 92 92 91 90 89 87 87 86 86 85 85 84 83 83 83 83 82 82 82 82 82 82 81 81 80 79 79 78 78 77 77 77 77 77 77 77 78 78 79 79 79 80 80 80 80 80 81 81 81 81 81 81 81 81 81 81 82 82 82 82 83 83 83 83 84 84 85
112 109 106 104 103 101 100 99 98 97 96 95 94 93 92 91 91 90 89 89 89 89 87 86 85 84 84 83 83 82 81 81 80 80 80 79 79 79 79 79 79 78 78 77 77 76 76 75 75 75 75 75 75 75 75 76 76 76 76 77 77 77 78 78 78 79 79 79 79 79 79 79 79 79 79 79 79 80 80 80 81 81 81 82 82 83
107 105 103 101 100 98 98 97 95 94 93 93 92 91 90 89 88 87 86 86 86 86 85 84 83 82 81 80 80 80 79 79 78 78 77 77 76 76 76 76 76 75 75 75 75 74 74 74 73 73 73 73 73 74 74 74 74 74 74 74 75 75 75 76 76 76 77 77 77 77 77 77 77 77 77 77 77 78 78 79 79 79 79 80 81 81
103 101 100 98 97 96 95 94 93 92 91 90 89 88 87 86 85 84 83 83 83 83 82 82 81 80 79 78 77 77 77 77 76 76 75 75 74 74 73 73 73 73 73 73 73 73 73 72 72 72 72 72 72 72 72 72 72 72 72 72 72 73 73 73 74 74 74 75 75 75 75 75 75 75 75 75 75 76 76 77 77 78 78 79 79 80
100 99 97 96 95 93 92 91 90 89 88 87 86 85 84 84 83 82 81 80 80 80 79 79 79 78 77 76 75 75 75 75 75 74 73 73 72 71 71 71 71 71 71 71 72 71 71 71 70 70 70 69 69 69 69 69 69 70 70 70 70 70 70 71 71 71 72 72 72 72 73 73 72 72 72 73 73 74 75 75 76 77 77 78 78 78
97 96 95 93 92 91 90 89 88 86 86 85 84 83 82 81 81 80 79 78 77 77 77 76 76 76 75 74 73 73 73 73 73 72 72 71 70 69 69 69 69 69 69 70 69 69 69 69 68 68 67 67 67 67 67 67 67 67 67 67 67 67 67 68 68 68 68 69 69 69 70 70 70 70 70 70 71 72 73 73 74 75 76 76 76 77
95 93 92 90 89 88 87 86 85 84 83 82 81 80 79 79 78 77 76 76 75 74 74 74 74 73 73 72 71 71 71 71 71 71 70 69 68 67 67 67 67 67 67 67 67 67 66 66 65 65 65 65 64 64 64 64 64 64 64 64 64 64 64 64 65 65 65 66 66 66 67 67 67 67 67 68 68 69 70 71 72 73 74 74 75 75
92 90 89 87 86 85 85 84 83 82 81 80 79 78 77 77 76 75 74 73 73 72 72 72 72 71 71 70 69 69 69 69 69 69 68 67 66 65 65 65 65 65 65 65 64 64 63 63 62 62 62 62 62 62 62 62 62 62 62 62 61 61 61 61 61 62 62 62 63 63 64 64 64 64 64 64 65 66 67 68 69 70 71 72 73 73
89 87 86 85 84 83 82 82 81 80 78 78 77 76 76 75 74 73 72 71 71 70 70 70 70 69 69 68 68 67 67 67 67 67 66 65 64 63 62 62 63 63 63 62 62 61 60 60 60 60 60 59 59 59 59 59 59 59 59 59 59 59 58 58 58 59 59 59 60 60 60 61 61 61 61 61 62 63 64 65 66 67 69 70 71 71
86 84 83 82 81 80 80 80 79 78 76 76 75 75 74 73 72 71 70 69 69 69 68 68 68 67 67 67 66 65 65 65 65 65 64 63 61 60 59 60 60 61 61 60 59 58 57 57 57 57 57 57 57 57 57 57 57 57 57 56 56 56 56 56 56 56 56 56 57 57 57 58 58 58 58 58 59 60 61 62 63 65 66 67 68 69
83 82 81 80 79 78 78 77 77 76 75 74 73 73 72 72 70 69 69 68 67 67 67 67 66 66 65 65 64 64 63 63 63 63 62 61 59 58 57 57 58 58 58 57 56 56 55 55 55 55 55 54 54 54 54 54 54 54 54 54 54 54 53 53 53 53 53 53 54 54 54 55 55 55 56 56 56 57 58 59 60 62 63 65 66 66
81 80 79 78 77 76 76 75 75 74 73 72 72 71 71 70 69 68 67 66 66 66 65 65 65 64 64 63 62 62 61 60 60 60 60 58 57 55 55 55 55 56 55 54 54 53 53 53 53 52 52 52 52 52 52 52 51 51 51 51 51 51 51 51 50 50 51 51 51 52 52 52 53 53 53 54 54 55 56 57 58 59 61 62 63 63
79 78 77 77 76 75 74 74 73 72 71 71 70 70 70 69 68 67 66 65 65 64 64 63 63 62 62 61 60 60 59 58 58 58 57 56 54 53 53 52 53 53 53 52 51 51 51 51 50 50 50 50 50 50 50 49 49 49 49 49 49 49 48 48 48 48 48 48 49 49 50 50 51 51 52 52 52 53 54 55 56 57 58 59 60 61
78 77 76 75 74 73 73 72 71 71 70 69 69 69 68 68 67 66 65 64 64 63 62 62 61 60 60 59 58 57 56 56 55 55 55 53 52 51 50 50 50 50 50 49 49 49 49 48 48 48 48 48 48 47 47 47 47 46 46 46 46 46 46 46 46 46 46 46 46 47 47 48 48 49 50 50 51 51 52 53 54 55 56 57 58 59
76 76 75 74 73 72 71 71 70 69 69 68 68 67 67 66 66 65 64 63 62 62 61 60 59 58 57 56 56 55 54 53 53 53 52 51 50 49 48 48 48 48 48 47 47 47 47 46 46 46 46 46 46 45 45 45 45 45 44 44 44 44 44 44 44 44 44 44 44 44 45 46 46 47 48 48 48 49 50 50 51 52 54 55 56 57
75 74 74 73 72 71 70 69 69 68 67 67 66 66 66 65 64 63 63 62 61 60 59 58 57 56 55 54 53 52 52 51 51 50 50 49 48 47 46 46 46 46 45 45 45 45 44 44 44 44 44 44 44 43 43 43 43 43 43 42 42 42 42 42 42 42 41 42 42 42 43 43 44 45 45 46 46 47 47 48 49 50 51 53 54 55
74 73 72 71 70 70 69 68 67 67 66 66 65 65 64 63 63 62 61 60 59 58 57 56 55 54 52 51 51 50 50 49 49 48 48 47 46 46 45 44 44 44 43 43 43 43 43 42 42 42 42 41 41 41 41 41 41 41 41 40 40 40 40 40 40 40 39 40 40 40 40 41 42 42 43 44 44 45 45 46 47 48 49 51 52 53
73 72 71 70 69 68 67 67 66 65 65 64 64 63 63 62 61 60 59 57 56 55 54 54 52 51 50 49 49 48 48 48 47 46 46 45 44 44 43 43 42 42 41 41 41 41 41 40 40 40 40 39 39 39 39 39 39 39 39 39 38 38 38 38 38 38 38 38 38 38 38 39 40 40 41 42 42 43 43 44 45 46 47 48 50 51
71 70 69 68 67 67 66 65 64 64 63 63 62 62 61 60 59 58 57 55 54 53 52 51 50 49 48 47 46 46 46 46 45 44 44 43 43 42 42 41 41 40 40 39 39 39 39 38 38 38 37 37 37 37 37 37 37 37 37 36 36 36 36 36 36 36 36 36 36 36 37 37 38 38 39 39 40 41 41 42 43 44 45 46 47 48
69 68 67 66 66 65 64 64 63 62 61 61 60 59 59 58 57 56 54 53 52 51 50 49 48 47 46 45 44 44 44 44 43 42 42 41 41 41 40 39 39 38 38 37 37 37 37 37 36 36 36 35 35 35 35 35 35 35 35 35 34 34 34 34 34 34 34 34 34 34 35 35 35 36 37 37 38 39 39 40 41 42 43 44 45 46
67 66 65 65 64 63 62 62 61 60 59 59 58 57 56 55 54 53 52 51 50 49 48 47 46 45 44 43 43 42 42 42 41 41 40 39 39 39 38 38 37 37 36 36 36 35 35 35 35 34 34 34 34 33 33 33 33 33 33 32 32 32 32 32 32 32 32 32 32 32 32 33 33 34 34 35 36 36 37 38 39 40 41 42 43 44
65 64 63 63 62 61 61 60 59 58 57 56 55 55 54 53 52 51 50 49 48 47 46 45 44 43 42 42 41 40 40 40 39 39 38 37 37 37 36 36 36 35 34 34 34 34 34 33 33 33 32 32 32 32 31 31 31 31 30 30 30 30 30 30 30 30 30 30 30 30 30 31 31 32 32 33 33 34 35 36 37 38 39 40 41 42
64 63 62 61 60 59 59 58 57 56 55 54 53 52 51 50 49 48 47 47 45 45 44 43 42 42 41 40 39 38 38 38 37 37 36 36 35 35 35 34 34 33 33 32 32 32 32 32 31 31 31 31 30 30 30 29 29 29 28 28 28 28 28 27 27 27 27 28 28 28 28 28 29 29 30 30 31 32 32 33 34 36 37 38 39 40
62 61 60 59 58 57 56 55 55 54 52 51 50 49 48 47 46 46 45 44 43 43 42 41 41 40 39 38 38 37 36 36 35 35 35 34 34 33 33 32 32 32 31 31 31 30 30 30 30 30 29 29 29 28 28 27 27 27 26 26 26 26 26 25 25 25 25 25 25 25 26 26 26 27 27 28 28 29 30 31 32 33 34 35 37 37
60 59 58 57 56 55 54 53 52 51 50 49 48 47 46 45 44 43 43 42 41 41 40 40 39 38 38 37 36 35 35 34 34 33 33 32 32 32 31 31 30 30 30 29 29 29 29 29 29 29 28 28 27 27 26 25 25 25 24 24 24 24 23 23 23 23 23 23 23 23 24 24 24 25 25 25 26 27 27 28 29 31 32 33 34 35
58 57 56 55 54 53 52 51 50 49 47 46 45 44 43 42 42 41 40 40 39 39 38 38 37 37 36 35 35 34 33 33 32 32 31 31 30 30 30 29 29 29 28 28 28 28 28 27 27 27 27 26 25 25 24 23 23 23 22 22 22 22 21 21 21 21 21 21 21 21 22 22 22 23 23 23 24 24 25 26 27 28 29 31 32 33
56 55 54 53 52 51 50 48 47 46 45 44 43 42 41 40 40 39 38 38 37 37 37 36 35 35 34 33 33 32 32 31 31 30 30 29 29 28 28 28 28 27 27 27 27 27 26 26 26 26 25 24 24 23 22 22 21 21 21 20 20 20 19 19 19 19 19 19 19 19 20 20 21 21 21 22 22 23 23 24 25 26 27 29 30 32
53 52 51 50 49 48 47 46 45 44 43 42 41 40 39 38 38 37 37 36 36 35 35 34 34 33 33 32 31 31 30 30 29 29 28 28 27 27 27 26 26 26 26 26 25 25 25 25 24 24 24 23 22 21 20 20 20 19 19 18 18 18 17 17 17 17 17 17 17 18 18 19 19 20 20 21 21 22 22 23 24 25 26 27 28 30
51 50 49 48 47 46 45 44 42 41 40 40 39 38 37 36 36 35 35 34 34 33 33 33 32 31 31 31 30 29 29 28 28 27 27 26 26 26 25 25 25 25 24 24 24 24 24 24 23 23 22 21 20 19 19 18 18 17 17 17 16 16 16 15 15 15 15 15 15 16 16 17 18 18 19 20 20 21 22 23 23 24 25 26 27 28
49 47 46 45 44 43 42 41 40 39 38 37 37 36 35 35 34 34 33 33 32 32 31 31 31 30 30 29 29 28 28 27 27 26 26 25 25 24 24 24 24 23 23 23 23 23 23 22 22 21 20 19 18 18 17 17 16 16 15 15 14 14 14 13 13 13 13 13 13 14 15 15 16 17 18 19 20 21 22 23 24 24 25 25 26 27
46 45 44 43 42 41 40 39 38 37 36 35 35 34 34 33 33 32 31 31 30 30 30 29 29 29 28 28 28 27 27 26 25 25 24 24 24 23 23 23 22 22 22 22 22 22 21 21 21 20 19 18 17 17 16 15 14 14 13 13 13 12 12 11 11 11 11 11 12 12 13 13 14 15 16 17 18 20 21 22 24 25 25 26 26 27
44 43 42 40 39 38 38 37 36 35 34 34 33 33 32 31 31 30 30 29 29 29 28 28 28 27 27 27 26 26 25 25 24 24 23 23 23 22 22 22 21 21 21 21 20 20 20 20 19 18 17 16 16 15 15 14 13 12 12 11 11 10 10 10 10 10 10 10 10 11 11 12 13 14 15 16 17 19 20 22 23 25 26 26 27 27
41 40 39 38 37 36 36 35 34 33 33 32 31 31 30 30 29 29 28 28 27 27 27 26 26 26 26 25 25 24 24 23 23 23 22 22 21 21 21 21 20 20 20 19 19 19 19 19 18 17 16 15 15 14 14 13 12 11 10 10 9 9 9 8 8 8 9 9 9 10 11 12 12 13 14 15 16 17 19 21 22 24 25 27 28 28
39 38 37 36 35 34 34 33 32 32 31 30 30 29 29 28 27 27 26 26 26 25 25 25 25 25 25 24 24 23 22 22 22 21 21 21 20 20 20 19 19 19 19 18 18 18 18 17 17 16 15 14 14 13 13 11 10 9 9 8 8 8 7 7 7 8 8 8 9 9 10 11 12 13 14 15 16 17 18 20 21 23 25 26 28 29
36 35 35 34 33 33 32 31 31 30 30 29 28 27 27 26 26 25 25 24 24 24 24 24 23 24 23 23 22 22 21 21 20 20 20 19 19 19 18 18 18 18 18 17 17 17 17 16 16 15 14 13 13 12 11 10 9 8 8 7 7 7 7 7 7 7 7 8 8 9 10 11 12 13 14 15 16 17 18 19 20 22 24 25 27 29
34 33 33 32 32 31 30 30 29 28 28 27 26 26 25 25 24 23 23 23 22 22 22 22 22 22 22 22 21 21 20 19 19 19 18 18 18 17 17 17 17 17 17 16 16 16 16 15 15 14 13 12 12 11 10 9 8 7 7 7 6 6 6 6 6 6 7 7 8 9 10 11 12 13 15 16 17 17 18 19 20 21 23 25 26 28
33 32 31 31 30 29 29 28 28 27 26 26 25 24 24 23 23 22 22 21 21 21 21 21 21 21 20 20 20 19 19 18 18 17 17 17 16 16 16 16 16 16 16 15 15 15 15 14 14 13 12 11 11 10 10 9 8 7 6 6 6 6 5 5 6 6 7 7 8 9 10 11 12 13 15 16 17 18 19 20 21 22 23 25 26 28
31 30 30 29 29 28 27 27 26 26 25 24 23 23 22 22 21 21 20 20 20 20 19 19 19 19 19 19 18 18 18 17 17 16 16 16 15 15 15 15 15 15 15 14 14 14 14 13 13 12 11 11 10 9 9 8 7 6 6 6 6 6 6 6 6 6 7 7 8 9 10 11 12 13 14 15 17 18 19 20 21 22 23 24 26 27
29 29 28 28 27 27 26 25 25 24 24 23 22 22 21 21 20 20 20 19 19 19 18 18 18 18 18 17 17 17 16 16 15 15 15 15 14 14 14 14 14 14 14 14 13 13 13 12 12 11 10 10 9 9 8 7 7 6 6 6 6 6 6 6 6 7 7 8 8 9 10 11 12 13 15 16 17 18 19 20 21 22 23 24 25 27
28 27 27 26 26 25 25 24 24 23 22 22 21 21 20 20 20 19 19 19 18 18 17 17 17 16 16 16 16 15 15 15 14 14 14 14 14 13 13 13 13 13 13 13 12 12 12 11 11 10 10 9 8 8 8 7 6 6 5 6 6 6 6 6 7 7 8 8 9 10 11 12 13 14 15 16 17 18 19 20 21 22 23 24 25 26
27 26 26 25 25 24 24 23 23 22 21 21 21 20 20 19 19 18 18 18 17 17 16 16 16 15 15 15 15 14 14 14 13 13 13 13 13 13 12 12 12 12 12 12 11 11 11 10 10 9 9 8 8 7 7 6 6 6 6 6 6 6 6 7 7 8 8 9 9 10 11 12 13 14 15 16 17 18 19 20 21 22 23 24 25 26
26 25 25 24 24 23 23 23 22 22 21 21 20 20 19 19 18 18 17 17 17 16 16 15 15 15 15 14 14 13 13 13 12 12 12 12 12 12 12 12 12 11 11 11 10 10 10 9 9 8 8 8 7 7 6 6 6 6 6 6 6 6 7 7 8 8 9 9 10 11 11 12 13 14 15 16 17 18 19 21 21 22 23 24 25 26
25 25 24 24 23 23 22 22 22 21 21 21 20 20 19 19 18 17 17 16 16 16 15 15 15 14 14 14 13 13 12 12 11 11 11 11 11 11 11 11 11 11 11 10 10 9 9 8 8 8 7 7 6 6 6 6 5 5 6 6 6 7 7 8 9 9 10 10 10 11 12 13 13 14 15 16 17 18 19 21 22 23 24 25 25 26
25 24 23 23 22 22 22 22 22 21 21 21 20 20 19 19 18 17 16 16 15 15 15 15 15 14 14 13 13 12 11 11 11 11 10 10 10 10 10 10 10 11 10 10 9 9 8 8 8 7 7 6 6 6 5 5 5 5 6 6 6 7 8 8 9 10 10 11 11 12 12 13 13 14 15 16 17 18 19 20 21 23 24 25 26 26
Wind_Direction
296 295 295 295 294 294 293 293 293 292 292 291 290 290 289 289 288 288 287 287 287 286 286 285 285 284 284 283 283 282 282 282 282 282 281 281 281 281 280 280 279 279 278 278 277 276 276 275 274 274 273 272 272 272 271 270 270 269 269 268 267 267 266 266 265 265 264 264 264 263 263 262 262 261 261 260 260 259 258 258 257 257 256 255 254 254
297 296 296 295 295 295 294 294 293 293 292 292 291 290 290 289 289 288 288 287 287 287 286 286 285 284 284 284 283 283 283 282 282 282 282 281 281 281 280 280 279 279 278 277 277 276 275 274 274 273 273 272 272 271 271 271 270 270 269 268 268 267 267 266 266 265 265 264 264 264 263 263 262 261 261 260 259 259 258 258 257 256 256 255 254 254
297 297 297 296 296 296 295 295 294 294 293 292 292 291 291 290 289 289 288 288 287 287 286 286 285 285 284 284 284 283 283 283 282 282 282 281 281 280 280 279 279 278 278 277 276 276 275 274 274 273 273 272 272 272 271 271 270 270 269 269 268 268 267 266 266 265 265 264 264 264 263 262 262 261 261 260 259 259 258 257 257 256 256 255 255 254
298 298 297 297 297 296 296 295 295 294 293 293 292 292 291 290 290 289 289 288 288 287 287 287 286 285 285 285 284 284 284 283 283 282 282 281 281 280 280 279 279 278 278 277 276 276 275 275 274 274 273 273 272 272 272 271 270 270 269 269 268 267 267 266 266 265 265 264 264 263 263 262 261 261 260 260 259 258 258 257 257 256 255 255 254 254
298 298 298 298 297 297 296 296 295 294 294 293 293 292 291 291 290 290 289 289 288 288 288 287 287 286 286 285 285 284 284 284 283 282 282 281 281 280 280 280 279 278 278 277 277 276 276 275 275 275 274 274 273 272 272 271 270 269 269 268 268 267 266 266 265 265 264 264 263 262 262 261 261 260 259 259 258 258 257 257 256 256 255 255 254 254
299 299 299 298 298 297 297 296 295 295 294 294 293 292 292 291 291 290 290 289 289 288 288 288 287 287 286 286 285 285 284 284 283 283 282 282 281 281 280 280 279 279 279 278 278 277 277 276 276 275 275 274 273 272 271 270 270 269 268 267 267 266 266 265 265 264 264 263 262 262 261 261 260 259 259 258 258 257 257 256 255 255 254 254 253 253
299 299 299 299 298 298 297 297 296 295 295 294 293 293 292 292 291 291 290 290 289 289 288 288 288 287 287 286 286 285 285 284 284 283 282 282 281 281 281 280 280 280 279 279 279 278 278 277 276 276 275 274 273 272 271 270 269 268 268 267 267 266 266 265 265 264 263 263 262 261 260 260 259 258 258 257 257 256 256 255 255 254 253 253 252 252
300 300 300 299 299 298 298 297 296 296 295 295 294 293 293 292 292 291 291 291 290 289 289 289 288 288 287 287 287 286 285 285 284 283 283 282 282 282 281 281 281 281 280 280 280 279 278 278 277 276 275 274 273 272 271 270 269 268 268 267 267 266 266 265 264 264 263 262 262 261 260 259 258 258 257 256 256 255 255 254 254 253 252 252 251 251
301 301 301 300 300 299 298 298 297 296 295 295 294 294 293 293 292 292 292 291 291 290 290 289 289 289 288 288 287 287 286 285 285 284 284 283 283 282 282 282 282 282 281 281 280 279 279 278 277 276 275 274 273 272 271 270 270 269 268 267 267 266 266 265 264 264 263 262 261 260 260 259 258 257 257 256 255 255 254 253 253 252 251 251 250 250
302 301 301 300 300 299 299 298 297 297 296 295 295 294 294 293 293 292 292 292 292 291 291 291 290 290 289 288 288 288 287 286 286 285 285 284 284 283 283 283 283 282 282 281 281 280 279 278 277 276 275 274 273 273 272 271 270 270 269 268 267 266 266 265 264 263 263 262 261 260 260 259 258 257 256 255 255 254 253 253 252 251 250 250 249 248
302 302 301 301 300 300 299 298 298 297 296 296 295 295 294 294 294 293 293 292 292 292 292 292 291 290 290 289 289 288 288 287 287 286 285 285 285 284 284 284 283 283 282 281 281 280 279 278 277 277 276 275 274 274 273 272 271 270 269 268 267 267 266 265 264 263 263 262 261 261 260 259 258 257 256 255 254 253 252 252 251 250 249 249 248 247
303 302 302 301 301 300 299 298 298 297 297 296 296 295 295 295 294 294 294 293 293 293 292 292 292 291 290 290 290 289 289 288 287 287 286 286 285 285 285 284 283 283 282 281 281 280 279 279 278 277 277 276 275 274 274 273 272 271 270 269 268 267 266 265 264 264 263 262 261 261 260 259 258 257 255 254 253 252 252 251 250 249 248 248 247 246
303 302 302 301 301 300 299 299 298 297 297 297 296 296 296 295 295 295 294 294 294 293 293 292 292 291 291 291 290 289 289 288 288 287 287 286 286 286 285 284 284 283 282 281 281 280 280 279 279 278 277 277 276 275 274 273 272 271 270 269 268 267 266 266 265 264 263 262 262 261 260 259 257 256 255 254 252 252 251 250 249 248 248 247 246 246
303 303 302 302 301 300 300 299 298 298 298 297 297 297 296 296 295 295 295 295 294 293 293 292 292 292 291 291 290 290 289 289 288 288 287 287 286 286 286 285 284 283 282 281 281 280 280 280 279 279 278 277 276 275 274 273 272 272 271 270 269 268 267 266 265 265 264 263 262 261 260 259 257 256 255 253 252 251 250 249 249 248 247 247 246 245
303 303 303 302 301 301 300 299 299 298 298 298 298 297 297 296 296 296 295 295 294 294 293 293 292 292 291 291 291 290 290 289 288 288 288 287 287 287 286 285 284 283 282 282 281 281 281 280 280 279 278 277 276 276 275 274 273 272 271 270 269 269 268 267 266 265 264 263 262 261 260 259 257 256 255 253 252 251 250 249 248 248 247 246 245 244
304 303 303 302 301 301 300 300 299 299 299 299 298 298 297 297 296 296 296 295 295 294 294 293 293 292 292 291 291 291 290 290 289 289 288 288 288 287 287 286 285 284 283 283 282 282 281 281 280 279 278 277 277 276 275 274 273 273 272 271 270 269 268 267 266 265 264 263 262 261 260 259 258 256 255 253 252 251 250 249 248 247 246 245 245 244
304 303 303 302 301 301 300 300 300 300 300 299 299 298 298 297 297 297 296 296 295 295 294 294 293 293 293 292 292 291 291 291 290 289 289 289 288 288 287 286 285 285 284 284 283 283 282 281 280 279 279 278 277 276 275 275 274 273 272 271 270 269 268 267 266 265 264 263 262 261 260 259 258 256 255 253 252 250 249 248 247 246 245 245 244 243
304 304 303 302 302 301 301 301 300 300 300 300 299 299 298 298 298 297 297 296 296 296 295 295 294 294 294 293 293 292 292 291 291 290 290 290 289 289 288 287 286 285 285 284 284 283 282 281 281 280 279 278 277 277 276 275 274 273 272 272 271 270 268 267 266 265 264 263 262 261 259 258 257 256 254 252 251 249 248 247 246 245 244 244 243 242
305 304 303 303 302 302 302 301 301 301 301 301 300 299 299 299 298 298 298 297 297 297 296 296 295 295 295 294 294 293 293 292 292 291 291 290 290 289 288 287 286 285 285 285 284 284 283 282 281 280 279 279 278 277 276 275 274 273 272 272 271 270 269 267 266 265 263 262 261 260 258 257 256 255 253 251 250 248 247 245 244 244 243 243 242 241
305 304 304 303 303 303 302 302 302 302 301 301 300 300 300 299 299 299 299 298 298 297 297 297 296 296 296 295 295 294 293 293 292 292 291 291 291 290 289 288 287 286 286 285 285 284 283 282 282 281 280 279 278 277 276 275 274 273 272 271 270 269 268 267 266 264 263 261 260 259 257 256 255 254 252 250 249 247 246 244 243 242 242 241 241 240
306 305 304 304 304 304 303 303 303 302 302 301 301 300 300 300 300 300 299 299 299 298 298 297 297 297 296 296 295 294 294 293 293 292 292 291 291 290 289 288 287 287 286 286 285 284 283 283 282 281 280 279 278 277 276 275 274 273 272 271 270 269 268 266 265 264 262 261 259 258 257 256 254 253 252 250 248 247 245 244 242 241 240 240 239 238
306 305 305 305 304 304 304 303 303 303 302 302 301 301 301 301 300 300 300 300 300 299 298 298 297 297 296 296 295 295 294 294 293 292 292 291 291 290 289 288 288 287 287 286 285 284 284 283 282 281 280 279 278 277 276 275 274 273 272 271 270 269 268 266 265 264 262 260 259 257 256 255 253 252 251 249 248 246 245 243 242 241 240 239 238 237
306 306 306 305 305 305 304 304 303 303 303 302 302 301 301 301 301 301 301 300 300 299 299 298 298 297 297 296 296 295 294 294 293 292 292 292 291 290 290 289 288 288 287 286 285 284 284 282 281 280 280 279 278 277 276 275 274 273 272 271 270 269 267 266 265 264 262 260 259 257 255 254 252 251 250 249 247 246 244 243 241 240 239 238 237 236
307 306 306 306 305 305 305 304 304 303 303 303 302 302 302 301 301 301 301 301 300 300 299 299 298 297 297 296 296 295 294 294 293 293 293 292 292 291 290 289 289 288 287 286 285 284 283 282 281 280 279 279 278 277 276 275 274 273 272 271 270 269 268 266 265 264 262 260 259 257 255 253 251 250 249 247 246 245 243 242 240 239 238 237 236 235
307 307 306 306 306 305 305 304 304 303 303 303 303 302 302 302 301 301 301 301 300 300 299 299 298 298 297 297 296 295 295 294 294 294 293 293 292 291 291 290 289 288 287 286 285 284 283 283 281 281 280 279 278 277 276 275 274 273 272 271 270 269 268 266 265 264 262 261 259 257 255 253 251 249 248 247 245 244 242 241 239 238 237 236 235 234
307 307 306 306 305 305 305 304 304 304 303 303 303 302 302 302 302 301 301 301 300 300 299 299 298 298 297 297 296 296 295 294 294 294 294 293 292 292 291 290 290 289 288 287 286 285 284 283 283 282 281 280 279 278 277 276 275 274 273 272 270 269 268 267 265 264 262 261 259 257 255 253 251 249 247 246 244 242 241 239 238 236 235 234 234 233
307 307 306 306 305 305 304 304 304 304 303 303 303 302 302 302 302 301 301 301 300 300 299 298 298 298 297 297 296 296 295 295 294 294 293 293 292 292 291 291 290 289 289 288 287 286 285 285 284 283 282 281 280 279 278 277 276 274 273 272 271 270 268 267 266 264 262 260 259 257 254 252 250 248 246 245 243 241 239 238 236 235 234 233 232 231
307 307 306 306 305 305 304 304 304 304 303 303 303 302 302 302 302 301 301 301 300 300 299 299 298 298 297 297 296 295 295 295 294 294 293 293 292 292 292 291 291 290 290 289 289 288 287 286 286 285 284 283 281 280 279 278 277 275 274 273 272 270 269 267 266 264 262 260 258 256 254 251 249 247 245 243 242 240 238 236 235 233 232 231 230 229
307 307 306 305 305 305 304 304 304 304 303 303 303 302 302 302 302 301 301 301 300 300 299 299 298 298 297 297 296 295 295 295 294 294 293 293 292 292 292 291 291 291 290 290 290 289 288 288 287 286 285 283 282 281 280 279 278 276 275 274 273 271 269 268 265 263 261 259 257 255 252 250 248 245 243 241 240 238 236 235 233 231 230 229 227 226
307 306 306 305 305 305 304 304 304 304 303 303 303 302 302 302 302 301 301 301 301 300 299 299 299 298 297 297 296 296 295 295 294 294 294 293 293 292 292 292 292 292 291 291 291 290 289 288 287 286 285 284 283 282 281 280 279 278 277 275 273 271 269 267 265 263 260 258 256 253 251 248 246 244 241 239 237 236 234 232 231 229 228 226 225 224
307 306 306 305 305 305 304 304 304 304 303 303 303 302 302 302 302 302 301 301 301 300 300 299 299 298 298 297 297 296 296 295 295 294 294 294 294 293 293 293 293 292 292 292 291 290 289 289 288 287 286 285 284 283 282 281 280 279 277 275 273 271 269 267 265 262 260 257 254 252 249 246 244 241 239 237 234 233 231 230 228 227 226 224 223 221
307 306 306 306 305 305 304 304 304 303 303 303 303 302 302 302 302 302 301 301 301 300 300 300 299 299 298 298 298 297 296 296 296 295 295 295 294 294 294 294 293 293 293 292 291 290 290 289 289 288 286 286 285 284 283 282 281 279 277 275 273 271 269 267 264 262 259 256 253 250 247 244 241 238 236 233 231 230 228 227 226 224 223 222 220 219
307 306 306 306 305 305 305 304 304 304 303 303 303 303 303 302 302 302 301 301 301 301 300 300 300 299 299 299 298 298 297 297 297 296 296 296 295 295 295 295 294 294 293 293 292 291 290 289 289 288 287 286 286 285 284 283 281 279 277 275 273 271 269 266 264 260 257 254 251 247 244 240 237 234 231 229 227 225 224 223 222 221 220 219 217 215
307 307 306 306 306 305 305 304 304 304 304 304 304 303 303 303 303 302 302 301 301 301 301 300 300 300 299 299 299 298 298 298 297 297 297 296 296 296 295 295 295 294 294 293 293 292 291 290 289 288 288 287 287 286 285 283 281 279 277 275 272 270 268 265 263 259 256 252 248 244 241 237 233 229 226 223 221 219 218 217 217 216 216 215 214 212
307 307 306 306 306 305 305 305 305 305 304 304 304 304 304 303 303 302 302 302 302 301 301 301 300 300 300 299 299 299 298 298 298 297 297 297 296 296 296 296 295 295 294 294 293 292 292 291 290 289 288 288 288 287 285 283 280 278 276 274 272 269 267 264 262 258 254 251 246 242 237 233 229 225 221 218 215 213 211 210 210 210 210 210 210 209
307 307 307 306 306 306 305 305 305 305 305 305 305 304 304 304 303 303 303 303 302 302 302 301 301 301 301 300 300 300 299 299 299 298 298 297 297 297 297 296 295 295 295 294 294 293 292 292 290 290 290 289 288 287 285 282 280 278 276 274 272 269 266 264 261 257 253 249 244 239 234 230 225 221 216 213 210 207 205 203 202 202 203 204 204 205
308 307 307 307 306 306 306 306 306 306 306 305 305 305 305 304 304 304 303 303 303 303 303 302 302 302 302 302 301 301 301 300 300 299 299 298 298 297 297 296 296 295 295 294 294 293 292 292 291 291 290 290 289 286 284 281 279 277 276 273 271 269 266 263 260 256 251 246 241 236 230 225 221 216 212 208 205 202 199 197 196 195 195 196 197 199
308 308 308 307 307 307 307 306 306 306 306 306 305 305 305 305 305 304 305 304 304 304 304 304 304 304 303 303 303 302 302 302 301 301 300 300 299 298 297 297 296 296 295 294 294 294 293 292 291 291 291 290 288 285 282 280 278 276 275 273 271 268 265 262 258 253 248 242 236 230 225 220 215 211 207 204 201 198 196 193 191 190 189 189 190 192
309 308 308 308 308 307 307 307 307 306 306 306 306 306 306 306 306 306 306 306 306 305 305 305 305 305 304 304 304 304 303 303 303 302 301 300 299 299 298 297 296 296 295 295 294 293 293 292 292 291 291 289 286 283 280 278 277 275 274 272 269 266 263 259 253 249 242 236 229 223 217 212 207 203 201 198 196 194 192 190 189 187 185 184 185 185
310 309 309 309 308 308 308 307 307 307 307 307 307 307 307 307 307 307 307 307 308 308 308 308 307 307 306 305 305 305 305 305 304 303 302 301 300 299 298 298 297 296 295 295 294 293 292 292 291 291 290 288 285 282 279 277 276 274 272 270 268 263 259 254 249 242 236 228 221 213 207 203 198 194 192 191 190 189 189 188 186 185 183 182 181 181
310 310 310 309 309 308 308 308 307 307 307 308 308 308 308 308 309 309 309 309 310 310 310 310 309 308 308 307 307 307 306 306 305 304 303 302 301 300 300 298 297 297 296 295 294 293 292 291 291 290 288 286 282 279 277 275 274 271 269 265 262 258 252 247 240 235 228 220 213 207 200 194 190 187 184 183 183 183 184 184 184 183 182 180 179 179
311 311 310 309 309 309 308 308 308 308 308 308 309 309 309 310 310 311 312 312 313 313 312 312 311 310 310 309 309 308 308 307 306 305 304 303 302 302 300 299 298 297 296 295 294 293 291 291 290 289 286 284 281 278 276 274 272 268 264 260 255 250 245 240 233 226 219 213 206 200 195 189 185 182 179 178 178 178 179 180 180 180 180 179 178 178
312 311 310 310 309 309 309 309 309 309 309 309 310 310 310 311 312 312 313 314 314 315 314 313 313 312 311 311 311 311 310 309 307 307 306 305 304 303 302 301 299 298 296 295 294 292 291 290 289 288 286 283 280 278 276 273 269 264 260 254 248 243 238 231 224 218 211 205 199 194 190 185 182 180 177 175 174 174 174 176 176 177 178 178 178 177
312 311 311 310 310 309 309 309 310 310 310 310 311 311 312 313 313 314 315 315 315 315 315 314 313 313 313 313 313 313 312 311 310 308 308 307 306 305 304 302 301 298 297 295 293 292 291 290 289 287 286 283 280 278 274 272 267 260 253 246 239 233 226 220 213 207 203 198 193 189 185 182 180 178 176 174 172 172 172 173 174 175 176 177 177 177
312 311 311 310 310 310 310 310 311 311 311 312 312 313 313 314 315 315 316 316 316 315 315 315 314 315 315 315 315 315 315 314 313 312 311 310 309 308 306 305 302 300 298 295 294 292 291 290 289 287 285 283 280 277 274 270 265 257 248 238 230 221 214 209 203 198 195 190 186 183 181 179 177 176 174 173 172 172 172 172 173 174 174 175 176 177
312 312 311 310 311 310 311 311 311 312 312 313 313 314 314 315 316 316 317 316 316 316 316 316 317 317 317 317 317 318 318 317 317 316 315 314 312 311 308 306 304 301 299 296 295 293 291 290 288 287 285 282 280 277 272 268 261 252 242 231 220 212 204 199 195 192 187 184 181 179 177 176 175 174 173 173 172 172 172 172 172 173 174 175 176 176
312 312 311 311 311 311 311 312 312 312 313 313 314 314 315 316 317 317 317 317 317 317 318 319 319 320 320 320 320 320 320 320 321 321 319 318 316 314 312 309 306 304 301 297 295 293 291 289 288 285 283 281 278 275 271 265 258 248 237 226 214 204 196 191 188 186 182 179 176 175 174 174 174 173 173 173 172 172 172 172 173 173 174 175 175 176
312 312 312 312 311 311 312 312 312 313 313 314 314 315 316 317 318 318 319 319 319 319 320 321 322 322 322 322 322 322 321 322 323 324 323 323 320 318 315 312 309 306 302 299 296 293 291 289 287 285 282 279 275 272 268 261 254 244 233 221 208 198 189 184 181 179 177 174 173 172 171 171 172 172 172 172 172 172 172 172 173 173 174 175 175 176
313 312 312 312 312 312 312 312 313 313 314 314 315 316 317 317 318 319 320 321 321 322 322 323 324 324 323 323 322 322 322 323 324 326 327 326 325 322 319 316 312 308 304 299 295 292 290 286 285 282 279 276 272 268 263 258 249 239 228 217 205 193 186 180 177 175 173 171 170 170 170 171 171 171 172 172 172 173 172 172 173 173 174 175 175 176
313 312 312 312 312 312 312 313 313 313 314 315 315 316 317 318 319 320 321 322 323 324 325 325 325 324 324 323 322 322 323 324 326 328 330 330 329 327 324 320 315 311 305 300 296 291 287 284 281 278 275 271 267 261 258 251 243 235 225 214 202 191 182 177 173 171 169 167 167 167 167 168 170 170 171 172 171 172 172 173 173 173 174 175 176 176
313 313 313 313 313 313 313 313 314 314 315 316 316 317 318 319 319 320 321 323 324 326 326 327 326 325 323 322 321 322 323 325 327 330 334 334 333 332 329 326 320 314 308 302 296 291 285 281 276 273 270 265 261 254 248 242 236 229 220 211 200 191 182 176 172 169 167 165 164 164 165 166 167 169 170 170 171 172 172 172 173 173 174 175 175 176
Height
10303 10298 10294 10290 10286 10282 10276 10269 10265 10261 10256 10248 10242 10237 10233 10228 10222 10216 10212 10207 10203 10200 10197 10194 10192 10188 10184 10181 10177 10175 10172 10170 10167 10165 10162 10160 10158 10157 10155 10154 10153 10153 10152 10152 10150 10150 10148 10148 10147 10145 10144 10143 10143 10142 10142 10142 10142 10142 10142 10142 10142 10142 10142 10142 10143 10143 10143 10144 10145 10147 10148 10150 10152 10154 10156 10158 10160 10161 10163 10165 10168 10170 10173 10175 10177 10179
10288 10284 10279 10274 10271 10268 10262 10255 10249 10245 10240 10234 10228 10222 10218 10213 10208 10203 10198 10193 10190 10187 10183 10181 10178 10175 10172 10169 10166 10164 10162 10159 10157 10155 10152 10150 10148 10146 10144 10143 10142 10141 10140 10140 10138 10138 10137 10135 10135 10134 10133 10133 10132 10132 10132 10131 10131 10131 10131 10130 10130 10131 10132 10132 10132 10132 10133 10133 10135 10136 10138 10140 10142 10143 10145 10147 10148 10150 10152 10154 10157 10158 10161 10163 10165 10168
10275 10270 10265 10260 10256 10253 10248 10241 10235 10229 10224 10219 10214 10209 10204 10200 10195 10190 10185 10181 10178 10174 10172 10168 10166 10163 10160 10158 10155 10153 10152 10149 10147 10145 10142 10140 10137 10135 10133 10132 10131 10130 10129 10128 10127 10126 10125 10124 10124 10123 10123 10123 10123 10122 10122 10122 10121 10121 10120 10120 10120 10120 10121 10121 10122 10122 10122 10123 10125 10126 10128 10130 10131 10133 10134 10136 10138 10140 10142 10143 10146 10148 10150 10153 10155 10158
10260 10256 10251 10246 10242 10238 10233 10227 10221 10215 10210 10205 10200 10196 10191 10187 10182 10178 10173 10170 10166 10163 10160 10157 10154 10152 10149 10147 10145 10143 10142 10140 10137 10135 10132 10129 10127 10125 10123 10122 10120 10119 10118 10117 10117 10115 10115 10114 10114 10114 10114 10114 10113 10113 10113 10112 10112 10110 10110 10110 10109 10110 10110 10110 10111 10112 10112 10113 10115 10116 10117 10119 10120 10122 10123 10125 10127 10129 10131 10133 10135 10138 10140 10143 10145 10148
10245 10242 10237 10233 10228 10223 10218 10213 10208 10202 10197 10192 10188 10183 10179 10175 10170 10166 10162 10158 10155 10152 10149 10147 10143 10141 10138 10136 10135 10133 10132 10130 10127 10124 10122 10118 10116 10114 10113 10112 10110 10109 10108 10107 10106 10105 10105 10105 10105 10105 10105 10105 10104 10104 10103 10102 10102 10100 10100 10099 10099 10099 10100 10100 10100 10102 10102 10103 10105 10106 10107 10109 10110 10112 10113 10115 10117 10119 10121 10122 10125 10128 10130 10133 10135 10138
10232 10228 10224 10220 10215 10210 10205 10200 10195 10190 10185 10180 10176 10172 10168 10163 10159 10155 10151 10147 10144 10141 10138 10136 10133 10131 10128 10126 10125 10123 10122 10120 10117 10114 10112 10108 10107 10105 10103 10102 10100 10099 10098 10097 10097 10096 10096 10096 10096 10095 10095 10095 10094 10093 10093 10092 10091 10090 10090 10089 10088 10089 10089 10090 10090 10092 10092 10093 10095 10096 10097 10098 10100 10102 10103 10105 10107 10108 10111 10113 10116 10118 10120 10123 10126 10128
10218 10215 10211 10207 10202 10198 10193 10188 10183 10178 10173 10168 10165 10162 10158 10153 10148 10144 10140 10137 10133 10130 10128 10126 10124 10122 10118 10116 10115 10113 10112 10110 10107 10104 10102 10099 10097 10095 10093 10092 10090 10089 10088 10088 10088 10087 10087 10087 10086 10085 10085 10085 10084 10083 10082 10081 10080 10080 10079 10079 10079 10079 10080 10080 10081 10082 10082 10083 10085 10085 10087 10088 10090 10092 10093 10095 10097 10098 10101 10103 10106 10108 10111 10113 10116 10119
10206 10202 10198 10194 10190 10185 10180 10176 10172 10167 10162 10157 10153 10150 10147 10143 10139 10135 10130 10127 10123 10120 10118 10117 10115 10112 10109 10107 10105 10103 10102 10099 10097 10095 10092 10090 10088 10087 10085 10083 10082 10080 10080 10079 10079 10078 10078 10077 10076 10075 10075 10074 10073 10072 10072 10071 10070 10070 10070 10070 10070 10070 10070 10071 10072 10072 10073 10073 10075 10075 10077 10078 10080 10082 10084 10086 10088 10090 10092 10093 10096 10098 10101 10104 10107 10110
10195 10191 10187 10182 10178 10173 10168 10163 10160 10156 10152 10147 10143 10139 10136 10133 10130 10127 10122 10117 10113 10109 10108 10107 10105 10103 10100 10098 10095 10093 10092 10089 10087 10085 10083 10082 10080 10078 10077 10075 10073 10072 10071 10070 10070 10068 10068 10067 10066 10065 10065 10064 10063 10062 10062 10062 10062 10061 10061 10061 10061 10061 10062 10062 10062 10063 10063 10064 10065 10066 10068 10069 10071 10073 10075 10077 10079 10081 10083 10084 10087 10089 10092 10095 10097 10100
10183 10180 10175 10171 10167 10163 10158 10153 10148 10145 10141 10137 10133 10129 10126 10123 10120 10118 10115 10110 10104 10100 10098 10097 10095 10093 10092 10089 10087 10084 10082 10080 10077 10076 10074 10073 10072 10070 10068 10067 10065 10064 10062 10061 10060 10059 10058 10057 10057 10056 10055 10055 10054 10053 10053 10053 10052 10052 10052 10052 10052 10052 10052 10053 10053 10053 10054 10055 10056 10057 10058 10060 10062 10064 10067 10068 10070 10072 10073 10076 10078 10080 10083 10085 10088 10090
10173 10169 10165 10161 10157 10152 10148 10143 10138 10134 10130 10127 10123 10120 10117 10113 10110 10108 10106 10103 10098 10093 10089 10087 10085 10083 10082 10080 10078 10075 10073 10070 10068 10067 10066 10065 10063 10062 10061 10059 10057 10055 10054 10052 10051 10050 10048 10048 10048 10047 10047 10046 10045 10045 10044 10044 10044 10043 10043 10043 10043 10043 10043 10044 10044 10045 10045 10046 10047 10048 10050 10052 10054 10057 10058 10060 10062 10063 10065 10067 10069 10071 10073 10076 10078 10081
10163 10159 10155 10151 10146 10142 10137 10133 10129 10125 10121 10117 10114 10111 10108 10105 10101 10098 10097 10094 10090 10086 10082 10079 10076 10074 10073 10072 10070 10067 10065 10062 10060 10058 10057 10056 10055 10055 10053 10052 10050 10048 10046 10044 10042 10041 10040 10040 10039 10038 10038 10038 10037 10037 10036 10035 10035 10035 10035 10035 10035 10035 10035 10035 10036 10037 10037 10038 10039 10040 10042 10044 10046 10048 10050 10052 10053 10055 10056 10058 10060 10062 10064 10067 10069 10072
10155 10150 10145 10141 10137 10132 10127 10123 10119 10116 10112 10108 10105 10102 10100 10096 10093 10090 10088 10085 10082 10079 10075 10072 10068 10066 10065 10064 10062 10060 10057 10054 10052 10050 10049 10048 10048 10048 10046 10043 10042 10040 10038 10036 10035 10033 10033 10032 10032 10031 10030 10030 10029 10028 10028 10027 10027 10027 10027 10027 10027 10027 10027 10028 10028 10029 10030 10030 10032 10033 10034 10035 10037 10039 10042 10043 10045 10047 10048 10049 10051 10053 10055 10058 10060 10063
10145 10140 10136 10132 10127 10122 10118 10113 10110 10107 10103 10100 10097 10094 10091 10088 10085 10082 10080 10077 10074 10071 10068 10065 10062 10059 10057 10056 10055 10052 10050 10047 10044 10043 10042 10041 10041 10040 10038 10036 10033 10032 10030 10028 10027 10027 10026 10025 10024 10023 10023 10022 10021 10021 10020 10020 10019 10018 10018 10018 10018 10019 10020 10020 10021 10022 10022 10023 10024 10026 10026 10028 10030 10032 10033 10035 10037 10038 10040 10042 10043 10045 10048 10050 10053 10056
10136 10132 10127 10123 10118 10113 10109 10105 10101 10098 10096 10093 10089 10086 10083 10080 10077 10075 10072 10070 10067 10063 10061 10058 10055 10052 10050 10049 10047 10045 10043 10040 10037 10035 10034 10033 10033 10033 10032 10028 10025 10023 10022 10022 10021 10020 10020 10018 10017 10016 10015 10014 10013 10013 10013 10012 10012 10012 10011 10011 10012 10012 10012 10013 10013 10014 10015 10016 10017 10018 10020 10020 10022 10023 10026 10028 10029 10031 10032 10034 10036 10038 10040 10043 10045 10048
10128 10123 10118 10114 10110 10105 10101 10097 10093 10090 10088 10085 10082 10078 10075 10072 10070 10067 10065 10062 10059 10057 10053 10051 10048 10045 10043 10042 10040 10039 10036 10033 10030 10028 10027 10027 10027 10026 10025 10022 10018 10016 10015 10015 10014 10013 10013 10012 10010 10009 10008 10007 10007 10007 10006 10005 10005 10005 10004 10004 10005 10005 10005 10006 10007 10008 10008 10010 10010 10010 10011 10012 10014 10016 10018 10020 10022 10023 10025 10027 10029 10031 10033 10035 10038 10040
10120 10115 10110 10106 10102 10098 10093 10089 10085 10083 10080 10077 10073 10070 10067 10064 10062 10060 10058 10055 10053 10050 10047 10044 10042 10039 10036 10035 10033 10032 10030 10027 10023 10021 10020 10020 10020 10020 10018 10015 10012 10009 10008 10008 10008 10007 10006 10005 10004 10003 10002 10002 10001 10000 10000 9999 9998 9998 9998 9998 9998 9998 9999 9999 10000 10001 10002 10003 10003 10004 10005 10006 10007 10009 10011 10013 10015 10017 10018 10020 10022 10024 10026 10028 10030 10033
10111 10107 10102 10098 10094 10090 10086 10082 10078 10075 10073 10070 10066 10062 10059 10057 10055 10053 10050 10048 10045 10043 10040 10037 10035 10033 10030 10028 10026 10025 10023 10020 10017 10015 10013 10013 10013 10013 10012 10009 10006 10003 10002 10002 10002 10001 10000 9998 9998 9997 9996 9995 9995 9994 9993 9993 9993 9992 9992 9992 9992 9992 9993 9993 9994 9995 9995 9996 9997 9997 9998 9999 10000 10002 10003 10005 10007 10009 10011 10013 10015 10017 10018 10021 10023 10027
10102 10098 10093 10089 10086 10083 10078 10074 10071 10068 10065 10062 10058 10055 10052 10049 10047 10045 10043 10041 10038 10036 10033 10030 10028 10026 10024 10022 10020 10018 10017 10014 10012 10009 10007 10007 10007 10007 10005 10003 10000 9998 9997 9997 9996 9995 9994 9993 9992 9992 9991 9990 9989 9988 9988 9987 9987 9987 9987 9987 9987 9987 9987 9987 9988 9988 9989 9990 9990 9991 9992 9993 9993 9995 9997 9998 10000 10002 10003 10005 10008 10010 10012 10014 10017 10020
10093 10089 10085 10081 10078 10075 10072 10067 10064 10061 10058 10055 10052 10048 10045 10042 10040 10038 10036 10034 10032 10029 10027 10024 10022 10020 10018 10015 10013 10012 10010 10008 10006 10003 10002 10002 10001 10000 10000 9997 9995 9993 9992 9992 9991 9990 9988 9987 9987 9986 9985 9985 9984 9983 9982 9982 9982 9982 9982 9981 9981 9981 9981 9982 9982 9983 9983 9984 9985 9985 9986 9987 9987 9988 9990 9992 9993 9995 9997 9999 10001 10003 10005 10007 10010 10013
10085 10080 10077 10073 10070 10067 10064 10060 10057 10054 10052 10048 10045 10042 10038 10035 10033 10030 10029 10027 10025 10023 10020 10018 10016 10014 10012 10010 10008 10006 10005 10003 10000 9998 9997 9996 9995 9995 9994 9992 9990 9988 9987 9987 9985 9985 9983 9982 9982 9981 9980 9980 9978 9978 9977 9977 9977 9977 9976 9976 9976 9976 9976 9976 9977 9977 9978 9978 9979 9980 9980 9982 9982 9983 9984 9986 9988 9990 9992 9993 9995 9997 9999 10001 10004 10007
10077 10073 10069 10066 10063 10060 10057 10053 10050 10047 10044 10041 10038 10035 10032 10029 10027 10024 10022 10021 10019 10017 10015 10012 10010 10008 10007 10005 10003 10001 9999 9997 9995 9993 9992 9991 9990 9990 9988 9987 9985 9984 9983 9982 9980 9980 9978 9978 9977 9976 9975 9975 9973 9973 9973 9972 9972 9972 9972 9971 9971 9971 9971 9971 9972 9972 9973 9973 9974 9975 9976 9976 9977 9978 9979 9981 9983 9985 9986 9988 9990 9992 9993 9995 9998 10001
10068 10065 10062 10058 10056 10053 10050 10047 10043 10040 10037 10034 10032 10028 10026 10023 10022 10019 10017 10015 10013 10011 10008 10007 10005 10003 10002 10000 9998 9996 9994 9992 9990 9988 9988 9986 9985 9984 9983 9982 9981 9980 9978 9977 9976 9975 9974 9973 9972 9972 9971 9970 9969 9968 9968 9968 9967 9967 9967 9967 9967 9967 9967 9967 9967 9967 9968 9968 9969 9970 9971 9972 9972 9974 9975 9976 9977 9979 9981 9983 9985 9987 9988 9990 9993 9996
10061 10058 10055 10052 10049 10046 10043 10040 10037 10033 10031 10028 10025 10022 10020 10018 10016 10014 10012 10010 10008 10005 10003 10002 10000 9998 9997 9995 9993 9991 9989 9987 9985 9984 9983 9982 9980 9980 9978 9978 9977 9975 9974 9973 9972 9971 9970 9968 9968 9967 9967 9966 9965 9965 9964 9963 9963 9963 9962 9962 9962 9962 9962 9962 9963 9963 9963 9964 9965 9965 9967 9967 9968 9969 9970 9971 9972 9973 9975 9977 9980 9982 9983 9986 9988 9991
10055 10052 10048 10046 10043 10040 10037 10033 10030 10028 10025 10022 10020 10017 10015 10012 10010 10009 10007 10005 10003 10000 9998 9997 9995 9993 9992 9990 9989 9987 9985 9983 9982 9980 9978 9977 9976 9975 9974 9973 9972 9971 9970 9969 9968 9967 9965 9965 9963 9963 9962 9962 9961 9960 9960 9960 9959 9958 9958 9958 9958 9958 9958 9958 9958 9959 9960 9960 9960 9962 9962 9963 9964 9965 9965 9967 9968 9970 9971 9973 9975 9977 9979 9981 9983 9987
10048 10045 10043 10040 10037 10033 10030 10028 10025 10022 10020 10017 10015 10012 10009 10007 10005 10003 10002 10000 9998 9997 9994 9992 9990 9989 9987 9986 9985 9982 9980 9978 9977 9976 9975 9973 9972 9971 9970 9969 9968 9967 9966 9965 9963 9963 9962 9960 9960 9959 9958 9958 9957 9957 9956 9956 9955 9955 9955 9955 9955 9955 9955 9955 9955 9955 9956 9957 9957 9958 9958 9959 9960 9961 9962 9963 9964 9965 9967 9969 9971 9973 9975 9977 9980 9982
10043 10040 10037 10033 10030 10028 10025 10022 10020 10017 10015 10012 10010 10007 10005 10003 10000 9998 9997 9995 9994 9992 9990 9988 9986 9985 9983 9982 9980 9978 9977 9975 9973 9972 9971 9970 9968 9967 9966 9965 9964 9963 9962 9961 9960 9958 9958 9957 9956 9955 9955 9954 9953 9953 9953 9952 9952 9952 9952 9951 9952 9952 9952 9952 9952 9952 9953 9953 9953 9954 9955 9955 9957 9957 9958 9960 9961 9962 9963 9965 9967 9968 9971 9973 9975 9978
10037 10034 10031 10028 10025 10022 10020 10017 10015 10013 10010 10008 10005 10003 10001 9998 9997 9995 9992 9991 9990 9988 9986 9984 9982 9981 9979 9978 9977 9975 9973 9972 9970 9969 9968 9967 9965 9963 9962 9962 9960 9959 9958 9957 9956 9955 9954 9953 9952 9952 9951 9950 9950 9949 9949 9948 9948 9948 9948 9948 9948 9948 9948 9948 9948 9949 9950 9950 9950 9951 9952 9952 9953 9954 9955 9956 9958 9959 9960 9962 9963 9965 9967 9969 9972 9974
10032 10028 10026 10023 10020 10017 10015 10012 10010 10008 10006 10003 10001 9998 9997 9995 9993 9990 9988 9987 9985 9984 9982 9980 9978 9977 9975 9975 9973 9972 9970 9968 9967 9965 9964 9963 9962 9960 9959 9958 9957 9956 9955 9953 9952 9952 9950 9950 9949 9948 9948 9947 9947 9946 9946 9945 9945 9945 9945 9945 9945 9945 9945 9945 9946 9946 9947 9947 9947 9948 9948 9949 9950 9950 9952 9953 9954 9955 9957 9958 9960 9962 9963 9965 9968 9970
10025 10023 10020 10018 10015 10012 10010 10008 10005 10003 10002 9999 9997 9995 9992 9990 9988 9987 9985 9983 9982 9980 9978 9977 9975 9973 9972 9971 9970 9968 9967 9965 9963 9962 9961 9960 9958 9957 9956 9955 9953 9953 9952 9951 9950 9948 9947 9947 9946 9945 9945 9944 9943 9943 9943 9943 9943 9943 9943 9943 9942 9942 9943 9943 9943 9943 9943 9943 9944 9945 9945 9946 9947 9947 9948 9949 9950 9952 9953 9955 9957 9958 9960 9962 9965 9967
10020 10017 10015 10012 10010 10008 10005 10003 10001 9999 9997 9995 9993 9991 9989 9987 9985 9983 9982 9980 9978 9977 9975 9973 9972 9970 9969 9968 9967 9965 9963 9962 9961 9960 9958 9957 9956 9954 9953 9952 9951 9950 9949 9948 9947 9946 9944 9943 9943 9942 9942 9941 9941 9940 9940 9940 9940 9940 9940 9940 9940 9940 9940 9940 9940 9940 9940 9941 9941 9942 9942 9943 9943 9944 9945 9946 9947 9948 9950 9952 9954 9956 9958 9960 9962 9965
10015 10012 10010 10008 10005 10003 10001 9999 9997 9995 9993 9991 9989 9987 9985 9983 9982 9980 9978 9977 9975 9973 9972 9970 9968 9967 9966 9965 9963 9962 9960 9959 9958 9957 9955 9955 9953 9952 9950 9950 9948 9947 9946 9945 9945 9944 9942 9941 9940 9940 9939 9939 9938 9938 9938 9938 9938 9938 9938 9937 9937 9937 9937 9937 9937 9938 9938 9938 9938 9938 9939 9940 9940 9941 9942 9943 9945 9946 9948 9950 9952 9953 9956 9958 9960 9962
10010 10007 10005 10003 10001 9999 9997 9995 9993 9991 9989 9987 9986 9984 9982 9980 9979 9977 9975 9973 9972 9970 9969 9967 9966 9965 9963 9962 9960 9959 9957 9956 9955 9954 9953 9952 9950 9949 9948 9947 9946 9945 9943 9943 9942 9942 9940 9939 9938 9938 9937 9937 9937 9937 9937 9937 9936 9935 9935 9935 9935 9935 9935 9935 9935 9935 9935 9935 9936 9936 9937 9937 9938 9938 9940 9941 9942 9943 9945 9947 9950 9952 9954 9956 9958 9960
10005 10003 10001 9998 9997 9995 9993 9991 9989 9987 9986 9984 9982 9981 9979 9977 9976 9974 9972 9971 9969 9968 9967 9965 9963 9962 9960 9959 9958 9956 9955 9953 9952 9951 9950 9950 9948 9947 9945 9945 9943 9942 9942 9940 9940 9938 9938 9937 9936 9936 9935 9935 9935 9935 9935 9935 9934 9933 9933 9933 9933 9933 9933 9933 9933 9933 9933 9933 9933 9934 9935 9935 9935 9937 9937 9938 9940 9942 9943 9945 9947 9950 9952 9954 9957 9958
10001 9999 9997 9995 9993 9991 9989 9987 9986 9984 9982 9981 9979 9978 9976 9974 9973 9971 9970 9968 9967 9965 9963 9962 9961 9960 9958 9957 9955 9953 9952 9951 9950 9949 9948 9947 9946 9945 9943 9942 9942 9941 9940 9938 9938 9937 9936 9935 9935 9934 9933 9933 9933 9933 9933 9933 9932 9932 9932 9932 9931 9931 9931 9931 9932 9932 9932 9932 9932 9933 9933 9933 9934 9935 9935 9937 9938 9939 9941 9943 9945 9947 9950 9952 9955 9957
9997 9995 9993 9992 9990 9988 9986 9984 9982 9981 9979 9978 9976 9975 9973 9972 9970 9968 9967 9965 9964 9963 9961 9960 9958 9957 9956 9955 9953 9952 9950 9949 9948 9947 9946 9945 9944 9943 9942 9940 9940 9938 9938 9937 9936 9935 9934 9933 9933 9932 9932 9932 9932 9932 9932 9931 9930 9930 9930 9930 9930 9930 9930 9930 9930 9931 9931 9931 9932 9932 9932 9933 9933 9933 9934 9935 9936 9937 9939 9941 9943 9945 9947 9950 9953 9956
9993 9992 9990 9988 9986 9985 9983 9981 9980 9978 9977 9975 9973 9972 9970 9969 9967 9966 9965 9963 9962 9960 9959 9957 9956 9955 9953 9952 9951 9950 9948 9947 9946 9945 9943 9943 9942 9942 9940 9938 9938 9937 9937 9935 9934 9933 9933 9932 9931 9931 9931 9931 9931 9930 9930 9929 9929 9929 9928 9928 9928 9928 9929 9929 9930 9930 9930 9931 9931 9932 9932 9932 9933 9933 9933 9935 9935 9937 9938 9939 9941 9943 9945 9948 9951 9954
9990 9988 9987 9985 9983 9982 9980 9978 9977 9975 9974 9972 9971 9969 9968 9967 9965 9963 9962 9961 9960 9958 9957 9955 9953 9952 9951 9950 9948 9947 9946 9945 9944 9943 9942 9941 9940 9940 9938 9937 9936 9935 9935 9934 9933 9932 9932 9930 9930 9930 9930 9930 9930 9929 9928 9928 9928 9928 9928 9928 9928 9928 9928 9928 9928 9929 9929 9930 9930 9931 9932 9932 9932 9933 9933 9934 9935 9936 9937 9938 9940 9942 9943 9946 9949 9952
9988 9986 9984 9982 9980 9979 9977 9976 9974 9973 9972 9970 9968 9967 9966 9964 9963 9962 9960 9959 9957 9956 9955 9953 9952 9950 9949 9948 9947 9945 9944 9943 9942 9941 9940 9939 9938 9938 9937 9935 9934 9933 9933 9932 9932 9931 9930 9930 9929 9929 9928 9928 9928 9927 9927 9927 9927 9927 9927 9927 9927 9927 9927 9928 9928 9928 9928 9929 9930 9930 9931 9932 9932 9933 9933 9935 9935 9936 9937 9938 9939 9941 9943 9945 9947 9950
9985 9983 9981 9980 9978 9977 9975 9973 9972 9970 9969 9968 9967 9965 9963 9962 9961 9960 9958 9957 9955 9954 9953 9951 9950 9948 9947 9946 9945 9944 9943 9942 9940 9940 9938 9937 9937 9936 9935 9934 9933 9932 9932 9931 9930 9930 9929 9928 9928 9928 9928 9927 9927 9926 9926 9926 9926 9926 9926 9927 9927 9927 9927 9927 9927 9928 9928 9928 9929 9930 9930 9931 9932 9933 9934 9935 9936 9937 9938 9938 9940 9941 9943 9945 9947 9949
9982 9980 9979 9977 9975 9974 9973 9971 9970 9968 9967 9965 9964 9963 9962 9960 9959 9958 9957 9955 9953 9952 9951 9950 9948 9947 9945 9944 9943 9942 9942 9940 9939 9938 9937 9936 9935 9934 9933 9933 9932 9931 9930 9930 9929 9928 9928 9927 9927 9927 9927 9926 9926 9925 9925 9925 9925 9925 9926 9926 9926 9926 9926 9927 9927 9927 9927 9928 9928 9929 9930 9930 9931 9932 9933 9935 9936 9938 9938 9940 9941 9942 9943 9945 9947 9949
9980 9978 9977 9975 9973 9972 9970 9969 9968 9966 9965 9963 9962 9961 9960 9959 9957 9956 9955 9953 9952 9950 9949 9948 9947 9945 9944 9943 9942 9941 9940 9939 9938 9937 9935 9935 9933 9933 9932 9932 9931 9930 9929 9928 9928 9927 9927 9926 9926 9926 9925 9925 9925 9925 9924 9925 9925 9925 9925 9925 9925 9926 9926 9926 9927 9927 9927 9928 9928 9929 9930 9930 9931 9932 9933 9933 9935 9937 9938 9940 9942 9943 9945 9946 9948 9950
9978 9977 9975 9973 9972 9970 9968 9967 9966 9964 9963 9962 9961 9960 9958 9957 9956 9955 9953 9952 9950 9949 9948 9947 9945 9944 9943 9942 9940 9940 9938 9937 9937 9935 9934 9933 9932 9932 9931 9930 9930 9929 9928 9928 9927 9926 9925 9925 9925 9925 9925 9925 9924 9924 9924 9924 9924 9925 9925 9925 9925 9926 9926 9927 9927 9927 9928 9928 9928 9929 9930 9930 9931 9932 9933 9933 9935 9936 9938 9940 9942 9943 9945 9947 9948 9950
9976 9974 9973 9971 9969 9968 9967 9965 9964 9963 9962 9960 9959 9958 9957 9955 9954 9953 9952 9950 9949 9948 9947 9945 9944 9943 9942 9940 9939 9938 9937 9936 9935 9934 9933 9932 9932 9931 9930 9929 9928 9928 9927 9927 9926 9925 9925 9925 9925 9924 9924 9924 9923 9923 9923 9924 9924 9925 9925 9925 9926 9927 9927 9927 9927 9927 9928 9928 9930 9930 9930 9931 9932 9933 9933 9935 9936 9937 9938 9940 9942 9943 9945 9947 9950 9952
9974 9972 9971 9969 9968 9966 9965 9963 9962 9961 9960 9958 9957 9956 9955 9953 9953 9952 9950 9949 9948 9947 9945 9944 9943 9942 9940 9939 9938 9937 9936 9935 9934 9933 9932 9932 9931 9930 9929 9928 9928 9927 9927 9926 9925 9925 9925 9924 9924 9924 9923 9923 9923 9923 9923 9923 9924 9924 9925 9925 9925 9926 9926 9927 9927 9927 9928 9928 9930 9930 9931 9932 9932 9933 9934 9935 9937 9939 9940 9941 9942 9944 9946 9948 9950 9952
9972 9970 9969 9967 9966 9965 9963 9962 9960 9959 9958 9957 9956 9955 9953 9952 9951 9950 9949 9948 9947 9945 9944 9943 9942 9941 9940 9938 9937 9936 9935 9934 9933 9932 9931 9930 9930 9929 9928 9928 9927 9927 9926 9925 9925 9925 9924 9924 9923 9923 9923 9923 9923 9923 9923 9923 9924 9924 9925 9925 9925 9925 9926 9927 9927 9928 9928 9929 9930 9930 9931 9932 9933 9934 9935 9936 9937 9939 9941 9942 9943 9945 9947 9949 9951 9953
9970 9969 9967 9966 9964 9963 9962 9960 9959 9958 9957 9955 9954 9953 9952 9951 9950 9948 9947 9947 9945 9944 9943 9942 9941 9940 9938 9937 9936 9935 9934 9933 9932 9932 9930 9930 9928 9928 9927 9927 9926 9926 9925 9925 9924 9924 9923 9923 9923 9923 9923 9923 9923 9923 9923 9923 9924 9924 9925 9925 9925 9925 9926 9927 9927 9928 9929 9930 9930 9931 9932 9932 9933 9935 9935 9937 9938 9939 9941 9943 9945 9946 9948 9950 9952 9955
9969 9967 9966 9964 9963 9962 9960 9958 9957 9956 9955 9953 9952 9952 9950 9949 9948 9947 9946 9945 9944 9943 9942 9940 9940 9938 9938 9937 9935 9934 9933 9932 9932 9930 9930 9928 9928 9927 9927 9926 9925 9925 9925 9925 9924 9923 9923 9923 9923 9923 9923 9923 9923 9923 9923 9923 9924 9924 9925 9925 9925 9926 9927 9927 9928 9929 9930 9930 9931 9932 9932 9933 9934 9935 9936 9937 9938 9940 9942 9943 9945 9947 9949 9951 9953 9955
9967 9966 9964 9963 9962 9960 9958 9957 9956 9955 9953 9952 9951 9950 9949 9948 9947 9947 9945 9944 9943 9942 9941 9940 9938 9938 9937 9935 9935 9933 9933 9932 9931 9930 9928 9928 9927 9927 9926 9925 9925 9925 9924 9924 9923 9923 9923 9923 9923 9923 9923 9923 9923 9923 9923 9923 9924 9924 9925 9925 9926 9927 9927 9928 9928 9929 9930 9930 9932 9932 9933 9934 9935 9936 9937 9938 9940 9941 9943 9944 9946 9948 9950 9952 9954 9956
9966 9965 9963 9962 9960 9958 9957 9956 9955 9953 9952 9951 9950 9948 9947 9947 9946 9945 9944 9943 9942 9941 9940 9938 9938 9937 9936 9935 9933 9933 9932 9931 9930 9929 9928 9927 9927 9926 9925 9925 9925 9924 9924 9923 9923 9923 9923 9922 9922 9922 9923 9923 9923 9923 9923 9923 9924 9924 9925 9925 9926 9927 9927 9928 9929 9930 9930 9931 9932 9933 9934 9935 9936 9937 9938 9939 9940 9942 9943 9945 9947 9948 9950 9953 9955 9957
9964 9963 9962 9960 9959 9957 9956 9955 9953 9952 9951 9950 9948 9947 9947 9945 9945 9943 9943 9942 9941 9940 9939 9938 9937 9936 9935 9934 9933 9932 9931 9930 9929 9928 9927 9927 9926 9925 9925 9925 9924 9924 9923 9923 9923 9923 9923 9922 9922 9922 9923 9923 9923 9923 9923 9924 9924 9925 9925 9925 9926 9927 9928 9928 9930 9930 9931 9932 9933 9933 9935 9936 9937 9938 9939 9940 9942 9943 9945 9946 9948 9950 9952 9953 9955 9958